Wind_Speed
1 2 3 4 5 5 4 4 4 4 4 4 5 5 6 6 6 6 6 5 5 5 5 5 5 4 4 4 4 4 4 4 3 3 3 3 4 4 4 5 6 6 7
1 2 3 4 4 4 4 4 4 4 4 4 5 5 5 6 5 5 5 5 4 4 4 4 4 3 3 3 3 4 3 3 3 3 3 3 3 4 5 6 6 6 6
1 2 3 4 4 4 4 4 4 4 4 5 5 5 5 5 5 5 4 4 4 3 3 3 3 3 3 3 3 3 3 3 3 4 4 3 3 4 5 6 6 6 6
1 2 3 4 4 4 4 4 5 5 5 5 5 5 5 5 5 4 4 3 3 3 3 3 2 2 2 3 3 3 3 3 3 4 4 3 4 4 4 4 5 5 5
1 1 2 4 4 5 5 5 5 5 6 5 5 5 5 4 4 4 3 3 2 2 2 2 2 2 2 2 2 2 2 2 3 3 3 3 4 4 4 4 4 4 5
1 1 1 3 4 4 4 5 5 5 6 6 6 5 5 4 4 3 2 2 2 2 2 2 2 2 2 2 1 2 2 2 2 3 2 3 3 3 3 3 3 3 4
2 1 0 1 3 3 4 5 6 6 6 6 6 6 5 4 3 3 2 2 2 2 2 3 3 2 2 1 1 2 2 2 2 2 2 2 2 3 3 3 2 2 3
3 2 1 2 3 4 4 5 6 7 7 7 7 6 5 4 3 3 2 2 2 2 3 3 2 2 2 1 1 2 2 1 2 1 2 2 2 2 3 2 2 2 2
5 4 3 3 3 4 5 6 7 7 8 8 7 6 6 5 3 3 2 1 1 2 3 2 2 2 1 1 1 2 1 1 1 2 2 2 2 2 2 2 2 2 1
7 6 5 5 5 5 7 8 8 8 8 8 8 7 6 5 4 3 2 1 2 2 2 2 2 1 1 1 1 1 1 1 1 2 2 2 2 2 2 2 2 2 1
8 7 8 7 6 6 7 8 9 9 9 9 9 8 7 6 5 4 2 2 2 2 2 1 1 1 1 1 1 1 2 1 2 1 1 2 2 2 2 2 2 2 2
11 10 10 8 8 8 8 9 9 9 10 10 10 10 8 7 6 4 3 2 2 2 1 2 2 2 1 1 2 2 2 1 1 0 1 2 2 2 2 2 2 2 3
12 12 12 10 10 8 8 8 9 8 10 11 10 10 9 8 6 5 4 2 2 2 1 1 2 2 2 1 1 2 1 2 1 0 1 1 2 2 2 2 2 2 3
13 13 13 12 11 8 7 8 9 10 10 11 11 10 10 9 7 6 4 3 2 1 1 1 2 2 1 1 1 1 1 1 1 1 1 1 1 1 2 3 3 3 3
14 15 15 14 11 9 8 9 9 10 11 11 11 10 10 9 7 6 4 3 2 2 1 1 2 2 1 1 1 1 1 1 1 1 1 1 0 1 1 2 3 3 3
15 15 16 14 12 11 10 10 10 9 10 10 10 10 9 9 8 6 5 3 3 2 2 1 2 2 1 1 1 1 1 1 1 1 1 1 0 1 1 1 2 3 3
16 16 16 14 13 12 11 10 10 9 10 10 10 10 10 9 8 7 6 4 3 3 2 2 1 1 1 1 1 1 1 2 1 2 2 1 1 0 0 0 1 2 2
17 16 16 15 14 13 12 10 9 9 10 10 11 11 11 10 9 8 7 5 5 4 3 2 1 1 1 1 2 2 2 2 2 3 3 2 2 2 2 1 1 0 0
17 16 16 15 15 12 10 7 7 8 9 10 10 11 12 11 10 9 8 7 6 4 3 2 2 2 1 2 2 2 2 3 3 3 3 3 3 3 3 3 2 1 1
17 16 16 14 13 10 8 6 6 8 9 10 10 11 12 12 11 10 9 8 7 6 4 3 2 2 2 2 2 2 2 2 3 3 3 3 3 3 3 3 2 2 1
17 16 15 13 11 9 6 6 6 7 9 11 11 12 12 12 12 11 10 9 8 7 5 4 3 3 2 2 2 2 2 2 1 1 2 2 2 2 3 3 2 2 2
16 15 14 13 11 9 7 6 6 7 8 10 11 11 12 13 12 12 11 10 8 8 7 6 5 4 3 2 2 2 1 1 1 0 1 1 1 2 2 2 2 2 2
15 14 12 11 10 9 7 6 5 6 7 8 11 12 13 13 13 13 12 11 10 9 8 7 6 5 4 4 3 2 2 1 1 1 1 0 0 1 1 2 2 2 2
14 13 11 11 9 8 7 6 6 6 7 9 10 11 13 13 13 13 13 12 11 11 10 9 8 7 6 5 5 4 3 3 3 2 2 2 2 1 2 2 3 2 2
13 11 10 10 10 8 7 6 6 7 8 9 11 12 12 13 13 13 13 13 12 12 11 11 10 9 8 7 7 6 5 5 5 4 3 4 3 3 3 3 3 3 4
12 10 10 9 9 8 6 5 5 6 7 9 11 13 13 14 14 14 13 13 13 13 13 12 12 11 10 9 9 8 8 7 7 7 7 6 6 6 5 5 5 5 5
Wind_Direction
165 168 163 162 159 162 167 172 169 175 179 172 161 153 148 141 135 129 122 118 115 114 111 106 104 104 104 104 103 104 103 99 100 105 100 97 96 100 104 109 111 117 117
201 190 174 175 176 172 172 178 184 185 183 178 172 162 155 149 145 138 130 122 117 118 112 108 105 109 107 107 108 108 107 102 102 114 106 96 92 99 112 109 112 115 121
160 173 176 181 187 189 190 191 196 196 193 188 180 171 163 155 147 142 135 130 123 121 118 112 109 111 108 109 110 113 115 110 114 118 106 101 103 102 112 109 114 114 122
133 162 182 190 196 201 201 204 207 206 203 198 190 180 174 167 158 150 144 137 130 122 123 118 120 120 122 123 118 117 118 113 118 119 108 101 101 106 110 112 113 115 120
113 171 197 201 204 207 210 216 219 215 209 205 200 193 188 182 172 160 156 149 139 130 126 125 124 129 132 127 119 122 123 120 120 117 117 105 103 109 107 107 110 112 116
57 116 207 207 208 212 215 214 215 218 212 211 207 203 203 199 191 179 167 165 150 139 133 133 131 133 141 138 129 141 139 140 136 130 129 122 116 117 108 107 113 118 123
24 32 280 240 226 221 227 222 219 224 223 221 216 216 213 207 195 183 175 165 155 145 137 140 138 132 141 147 129 127 138 151 147 144 143 139 143 141 130 123 114 118 127
7 360 321 270 247 234 232 230 231 232 229 226 226 224 218 214 205 189 183 170 153 138 134 138 142 139 141 139 137 133 125 135 155 170 165 162 162 158 150 139 143 136 131
12 358 336 302 264 247 239 238 237 236 235 233 229 225 224 222 217 205 199 179 154 141 138 133 137 137 143 138 149 153 153 147 153 174 182 180 174 175 172 161 170 172 162
0 349 339 326 287 259 246 242 238 239 240 238 234 232 229 227 224 222 221 200 171 145 138 129 128 134 130 126 133 129 133 145 145 172 180 185 187 191 179 178 182 189 189
347 343 335 325 306 273 252 243 240 242 242 237 234 232 228 228 226 227 230 215 194 159 144 130 116 130 136 118 105 92 94 105 125 148 171 187 197 207 196 193 203 208 206
343 340 333 320 310 292 266 246 243 241 237 235 235 229 227 227 228 226 227 218 199 168 148 132 125 126 119 94 81 79 89 93 106 123 176 182 191 200 205 218 225 228 213
343 334 329 329 322 307 274 251 243 245 238 235 237 231 230 230 231 227 222 219 204 180 151 127 123 118 111 89 77 80 90 103 110 72 167 178 183 205 217 227 229 232 227
339 333 331 331 324 315 287 258 247 248 244 239 232 231 233 233 234 230 219 214 206 203 187 146 124 123 126 97 75 92 81 104 119 128 133 162 186 222 223 228 228 233 236
335 334 330 326 322 314 296 276 262 255 238 231 231 230 229 228 231 233 220 212 207 205 191 158 133 119 105 90 76 68 35 81 95 112 123 142 196 232 212 222 230 229 239
332 330 331 326 321 309 299 284 265 253 238 231 230 230 227 225 230 230 218 209 207 201 189 162 121 112 102 75 71 75 52 55 116 111 96 95 166 228 225 239 238 237 237
332 329 331 328 321 310 300 288 265 245 241 229 227 230 227 224 224 224 220 213 207 209 187 172 126 113 109 84 76 72 60 62 78 85 92 82 82 109 225 239 227 231 240
332 330 328 326 323 315 300 281 257 245 234 227 228 230 225 223 220 220 222 216 212 205 193 189 179 144 120 98 76 65 63 72 84 86 82 70 80 83 65 69 98 153 228
329 329 328 327 324 314 298 280 255 247 235 230 231 229 222 221 220 220 221 218 211 208 202 201 200 174 141 117 106 86 76 73 75 83 85 80 84 81 70 69 73 81 61
327 327 327 327 322 314 295 276 260 242 231 230 232 227 222 223 223 221 220 216 214 210 206 207 204 185 166 143 124 105 96 85 78 84 89 84 80 78 70 64 66 59 45
325 325 326 329 323 312 302 279 256 240 235 229 231 231 228 227 225 221 221 222 218 211 211 215 217 204 188 178 165 138 116 113 118 102 88 86 83 74 63 54 48 37 31
324 324 323 326 322 312 304 289 263 241 234 231 228 228 228 227 222 220 220 223 218 216 218 219 220 217 207 204 202 182 160 154 122 115 90 73 70 62 57 42 33 21 22
323 324 321 321 319 315 306 291 266 253 242 234 228 225 226 224 221 220 221 222 221 222 224 223 223 223 223 223 228 230 231 250 274 283 269 277 4 19 4 5 6 20 15
322 324 324 323 322 318 304 286 270 259 247 234 228 225 223 220 220 219 221 222 222 225 228 230 230 231 234 238 240 244 253 269 278 287 290 292 299 304 312 321 328 330 346
322 323 325 326 325 317 301 287 271 260 251 239 234 228 224 220 220 219 221 222 223 226 230 232 234 235 238 243 246 249 258 270 279 285 288 286 286 287 291 299 309 315 317
320 322 326 327 323 316 306 293 272 265 254 240 235 233 228 223 221 222 223 224 225 229 232 235 237 239 241 244 247 251 258 265 274 278 274 274 277 278 280 284 287 292 297
Height
5884 5884 5885 5886 5887 5887 5887 5888 5888 5888 5888 5888 5888 5888 5888 5888 5888 5888 5888 5888 5888 5888 5889 5889 5889 5889 5889 5889 5889 5890 5890 5890 5890 5891 5891 5891 5892 5892 5892 5892 5893 5894 5894
5884 5884 5885 5886 5887 5887 5888 5888 5889 5889 5889 5889 5889 5889 5889 5889 5889 5889 5889 5889 5889 5889 5889 5889 5889 5890 5890 5890 5890 5890 5890 5890 5891 5891 5892 5892 5892 5893 5893 5893 5894 5895 5895
5884 5885 5885 5886 5887 5888 5888 5889 5889 5889 5889 5889 5890 5890 5890 5890 5889 5890 5890 5890 5890 5890 5890 5890 5890 5890 5890 5890 5890 5891 5891 5891 5891 5892 5892 5893 5893 5894 5894 5894 5895 5896 5897
5885 5885 5886 5886 5887 5888 5888 5889 5889 5890 5890 5890 5890 5890 5890 5890 5890 5890 5890 5890 5890 5890 5890 5890 5890 5891 5891 5891 5891 5891 5891 5892 5892 5892 5893 5894 5894 5894 5895 5895 5896 5897 5898
5886 5886 5886 5887 5887 5888 5889 5889 5889 5890 5890 5890 5890 5891 5891 5891 5891 5891 5891 5891 5891 5891 5891 5891 5891 5891 5891 5892 5892 5892 5892 5892 5892 5893 5894 5894 5895 5895 5896 5896 5897 5898 5898
5886 5886 5886 5887 5887 5888 5888 5889 5889 5890 5890 5890 5891 5891 5891 5891 5891 5891 5891 5891 5891 5891 5891 5891 5891 5892 5892 5892 5892 5892 5893 5893 5893 5894 5894 5895 5896 5896 5897 5897 5898 5899 5899
5887 5887 5887 5887 5887 5888 5888 5889 5889 5889 5890 5890 5891 5891 5891 5891 5891 5891 5891 5891 5891 5891 5891 5892 5892 5892 5892 5892 5892 5893 5893 5893 5894 5894 5895 5896 5896 5897 5897 5898 5899 5900 5900
5888 5887 5887 5887 5887 5887 5888 5888 5889 5889 5890 5890 5890 5891 5891 5892 5892 5892 5892 5892 5892 5892 5892 5892 5892 5892 5892 5892 5893 5893 5893 5894 5894 5895 5895 5896 5896 5897 5898 5899 5900 5900 5901
5888 5887 5887 5887 5887 5887 5887 5888 5888 5889 5889 5890 5890 5891 5891 5892 5892 5892 5892 5892 5892 5892 5892 5892 5892 5892 5892 5893 5893 5893 5894 5894 5895 5895 5895 5896 5897 5897 5898 5899 5900 5901 5902
5887 5887 5887 5886 5886 5886 5886 5887 5888 5888 5889 5889 5890 5890 5891 5892 5892 5892 5892 5892 5892 5892 5893 5893 5893 5893 5893 5893 5893 5894 5894 5894 5894 5895 5896 5896 5897 5898 5899 5899 5900 5901 5902
5886 5886 5886 5885 5885 5885 5885 5885 5886 5887 5887 5888 5889 5890 5891 5891 5892 5892 5892 5892 5892 5893 5893 5893 5893 5893 5893 5893 5894 5894 5894 5895 5895 5895 5896 5897 5897 5898 5899 5900 5900 5901 5902
5886 5885 5885 5883 5883 5883 5883 5884 5885 5885 5886 5887 5888 5889 5890 5891 5892 5892 5892 5892 5893 5893 5893 5893 5893 5893 5893 5894 5894 5894 5895 5895 5895 5895 5896 5897 5897 5898 5899 5900 5900 5901 5901
5886 5884 5882 5881 5882 5882 5882 5882 5883 5884 5885 5886 5887 5888 5889 5890 5891 5892 5892 5893 5893 5893 5893 5894 5893 5893 5894 5894 5894 5894 5895 5895 5895 5896 5896 5897 5897 5898 5899 5899 5900 5901 5901
5885 5883 5881 5880 5880 5880 5880 5881 5882 5882 5883 5884 5886 5887 5889 5890 5891 5891 5892 5893 5893 5894 5894 5894 5894 5894 5895 5894 5895 5894 5895 5896 5895 5896 5896 5897 5897 5898 5898 5899 5900 5900 5901
5884 5882 5881 5879 5879 5878 5878 5879 5880 5880 5881 5883 5884 5886 5888 5889 5891 5891 5892 5893 5894 5894 5894 5894 5895 5895 5895 5895 5895 5895 5895 5895 5895 5896 5896 5897 5897 5898 5898 5899 5899 5900 5900
5883 5881 5879 5877 5877 5876 5876 5877 5877 5878 5880 5882 5884 5885 5887 5888 5890 5891 5892 5893 5894 5894 5895 5895 5895 5895 5895 5895 5895 5896 5895 5895 5895 5896 5896 5897 5897 5898 5898 5898 5899 5899 5900
5882 5880 5878 5876 5875 5874 5874 5874 5875 5876 5878 5880 5882 5884 5886 5888 5889 5891 5892 5893 5894 5894 5895 5895 5895 5895 5896 5896 5896 5896 5896 5896 5896 5897 5897 5897 5897 5897 5898 5898 5899 5899 5900
5881 5879 5877 5875 5873 5872 5871 5872 5873 5875 5876 5877 5880 5883 5885 5887 5888 5890 5891 5893 5893 5894 5895 5896 5896 5896 5896 5896 5896 5896 5896 5897 5897 5897 5897 5897 5897 5898 5898 5898 5899 5899 5899
5880 5878 5875 5873 5872 5870 5870 5870 5872 5874 5875 5876 5879 5882 5884 5886 5887 5889 5891 5892 5893 5894 5895 5896 5896 5896 5896 5896 5897 5897 5897 5897 5897 5897 5897 5898 5898 5898 5899 5899 5899 5899 5899
5879 5876 5874 5872 5870 5868 5868 5870 5871 5873 5874 5876 5878 5880 5883 5884 5886 5888 5890 5891 5893 5894 5895 5896 5896 5896 5897 5897 5897 5897 5898 5898 5898 5898 5898 5898 5899 5899 5899 5899 5899 5899 5899
5877 5875 5873 5871 5869 5868 5868 5869 5870 5872 5873 5875 5877 5879 5881 5883 5885 5887 5889 5891 5892 5893 5894 5895 5896 5896 5897 5897 5897 5898 5898 5898 5898 5898 5899 5899 5899 5899 5899 5899 5899 5899 5899
5876 5874 5872 5870 5869 5868 5868 5868 5869 5870 5872 5874 5875 5877 5880 5882 5884 5886 5888 5890 5891 5893 5894 5895 5896 5896 5897 5897 5897 5898 5898 5898 5898 5898 5899 5899 5899 5899 5899 5899 5899 5899 5899
5875 5873 5871 5869 5868 5868 5867 5867 5867 5869 5870 5872 5874 5876 5878 5880 5882 5884 5887 5889 5890 5892 5893 5894 5895 5896 5896 5897 5897 5898 5898 5898 5898 5899 5898 5899 5899 5899 5899 5899 5899 5899 5899
5874 5872 5870 5869 5868 5866 5866 5866 5867 5868 5869 5871 5872 5874 5876 5878 5881 5883 5885 5887 5889 5891 5892 5893 5894 5895 5896 5896 5897 5897 5898 5898 5898 5898 5898 5898 5898 5898 5899 5899 5898 5898 5898
5873 5871 5870 5868 5867 5866 5865 5865 5865 5866 5867 5869 5870 5872 5874 5877 5879 5881 5883 5885 5887 5889 5891 5892 5893 5894 5895 5895 5896 5896 5896 5897 5897 5897 5897 5897 5898 5897 5898 5898 5898 5897 5898
5872 5870 5869 5868 5866 5865 5864 5864 5864 5865 5866 5867 5868 5870 5872 5875 5877 5879 5881 5883 5885 5887 5889 5890 5891 5892 5893 5894 5894 5895 5895 5895 5896 5896 5896 5896 5896 5896 5896 5897 5897 5897 5897